| time (UTC) | temp F | wind direction | speed MPH | gust MPH | rain 1hr in | rain 24hr in | rain mn in | humidity % | barometer mb |
| 20260510162905 | 55 | 229 | 0.0 | 0.0 | 0.00 | 0.00 | 0.00 | 82 | 1018.9 |
| 20260510162404 | 55 | 282 | 0.0 | 0.0 | 0.00 | 0.00 | 0.00 | 84 | 1018.9 |
| 20260510161904 | 55 | 321 | 0.0 | 0.0 | 0.00 | 0.00 | 0.00 | 83 | 1018.8 |
| 20260510160404 | 55 | 128 | 0.0 | 0.0 | 0.00 | 0.00 | 0.00 | 85 | 1018.5 |
| 20260510155905 | 54 | 232 | 0.0 | 0.0 | 0.00 | 0.00 | 0.00 | 86 | 1018.5 |
| 20260510155404 | 54 | 246 | 0.0 | 0.0 | 0.00 | 0.00 | 0.00 | 85 | 1018.4 |
| 20260510154404 | 54 | 184 | 0.0 | 0.0 | 0.00 | 0.00 | 0.00 | 87 | 1018.5 |
| 20260510153904 | 54 | 187 | 0.0 | 0.0 | 0.00 | 0.00 | 0.00 | 86 | 1018.4 |
| 20260510153404 | 54 | 200 | 0.0 | 0.0 | 0.00 | 0.00 | 0.00 | 86 | 1018.4 |
| 20260510152404 | 53 | 7 | 0.0 | 0.0 | 0.00 | 0.00 | 0.00 | 87 | 1018.3 |
| 20260510151904 | 53 | 20 | 0.0 | 0.0 | 0.00 | 0.00 | 0.00 | 88 | 1018.3 |
| 20260510151403 | 53 | 280 | 0.0 | 2.0 | 0.00 | 0.00 | 0.00 | 87 | 1018.3 |
| 20260510150904 | 53 | 331 | 0.0 | 2.0 | 0.00 | 0.00 | 0.00 | 87 | 1018.3 |
| 20260510150404 | 53 | 184 | 0.0 | 2.0 | 0.00 | 0.00 | 0.00 | 88 | 1018.4 |
| 20260510145905 | 53 | 160 | 0.0 | 3.0 | 0.00 | 0.00 | 0.00 | 88 | 1018.3 |
| 20260510145404 | 53 | 297 | 0.0 | 3.0 | 0.00 | 0.00 | 0.00 | 88 | 1018.4 |
| 20260510144404 | 53 | 205 | 0.0 | 0.0 | 0.00 | 0.00 | 0.00 | 88 | 1018.1 |
| 20260510143904 | 53 | 248 | 0.0 | 0.0 | 0.00 | 0.00 | 0.00 | 89 | 1017.9 |
| 20260510142904 | 53 | 300 | 0.0 | 0.0 | 0.00 | 0.00 | 0.00 | 90 | 1017.9 |
| 20260510141404 | 52 | 282 | 0.0 | 0.0 | 0.00 | 0.00 | 0.00 | 90 | 1018.0 |
| 20260510140904 | 52 | 311 | 0.0 | 0.0 | 0.00 | 0.00 | 0.00 | 92 | 1017.8 |
| 20260510140404 | 52 | 319 | 0.0 | 0.0 | 0.00 | 0.00 | 0.00 | 93 | 1017.6 |
| 20260510135904 | 52 | 0 | 0.0 | 0.0 | 0.00 | 0.00 | 0.00 | 94 | 1017.7 |
| 20260510135404 | 52 | 0 | 0.0 | 0.0 | 0.00 | 0.00 | 0.00 | 94 | 1017.6 |
| 20260510134904 | 51 | 0 | 0.0 | 0.0 | 0.00 | 0.00 | 0.00 | 94 | 1017.7 |
| 20260510134403 | 51 | 0 | 0.0 | 0.0 | 0.00 | 0.00 | 0.00 | 94 | 1017.5 |
| 20260510133904 | 51 | 0 | 0.0 | 0.0 | 0.00 | 0.00 | 0.00 | 94 | 1017.5 |
| 20260510133404 | 51 | 0 | 0.0 | 0.0 | 0.00 | 0.00 | 0.00 | 94 | 1017.6 |
| 20260510132904 | 51 | 0 | 0.0 | 0.0 | 0.00 | 0.00 | 0.00 | 94 | 1017.6 |
| 20260510132404 | 51 | 0 | 0.0 | 0.0 | 0.00 | 0.00 | 0.00 | 94 | 1017.4 |
| 20260510131904 | 51 | 0 | 0.0 | 0.0 | 0.00 | 0.00 | 0.00 | 94 | 1017.4 |
| 20260510131403 | 51 | 0 | 0.0 | 0.0 | 0.00 | 0.00 | 0.00 | 94 | 1017.3 |
| 20260510130904 | 51 | 355 | 0.0 | 0.0 | 0.00 | 0.00 | 0.00 | 95 | 1017.4 |
| 20260510130404 | 51 | 313 | 0.0 | 0.0 | 0.00 | 0.00 | 0.00 | 95 | 1017.6 |
| 20260510125904 | 51 | 313 | 0.0 | 0.0 | 0.00 | 0.00 | 0.00 | 95 | 1017.5 |
| 20260510125404 | 50 | 313 | 0.0 | 0.0 | 0.00 | 0.00 | 0.00 | 95 | 1017.5 |
| 20260510124904 | 50 | 313 | 0.0 | 0.0 | 0.00 | 0.00 | 0.00 | 95 | 1017.5 |
| 20260510124404 | 50 | 313 | 0.0 | 0.0 | 0.00 | 0.00 | 0.00 | 95 | 1017.4 |
| 20260510123403 | 49 | 313 | 0.0 | 0.0 | 0.00 | 0.00 | 0.00 | 95 | 1017.4 |
| 20260510122904 | 49 | 313 | 0.0 | 0.0 | 0.00 | 0.00 | 0.00 | 95 | 1017.4 |
| 20260510121903 | 49 | 313 | 0.0 | 0.0 | 0.00 | 0.00 | 0.00 | 94 | 1017.5 |
| 20260510121404 | 49 | 313 | 0.0 | 0.0 | 0.00 | 0.00 | 0.00 | 94 | 1017.5 |
| 20260510120904 | 49 | 313 | 0.0 | 0.0 | 0.00 | 0.00 | 0.00 | 94 | 1017.4 |
| 20260510115904 | 49 | 313 | 0.0 | 0.0 | 0.00 | 0.00 | 0.00 | 93 | 1017.3 |
| 20260510115404 | 49 | 313 | 0.0 | 0.0 | 0.00 | 0.00 | 0.00 | 93 | 1017.2 |
| 20260510114903 | 49 | 313 | 0.0 | 0.0 | 0.00 | 0.00 | 0.00 | 93 | 1017.3 |
| 20260510114404 | 49 | 313 | 0.0 | 0.0 | 0.00 | 0.00 | 0.00 | 94 | 1017.3 |
| 20260510113905 | 49 | 313 | 0.0 | 0.0 | 0.00 | 0.00 | 0.00 | 94 | 1017.3 |
| 20260510113404 | 49 | 313 | 0.0 | 0.0 | 0.00 | 0.00 | 0.00 | 94 | 1017.1 |
| 20260510112904 | 49 | 313 | 0.0 | 0.0 | 0.00 | 0.00 | 0.00 | 94 | 1017.2 |
| 20260510112404 | 49 | 313 | 0.0 | 0.0 | 0.00 | 0.00 | 0.00 | 95 | 1017.1 |
| 20260510111904 | 49 | 313 | 0.0 | 0.0 | 0.00 | 0.00 | 0.00 | 95 | 1017.0 |
| 20260510110904 | 48 | 321 | 0.0 | 0.0 | 0.00 | 0.00 | 0.00 | 93 | 1017.0 |
| 20260510110404 | 48 | 321 | 0.0 | 0.0 | 0.00 | 0.00 | 0.00 | 93 | 1017.1 |
| 20260510105904 | 48 | 321 | 0.0 | 0.0 | 0.00 | 0.00 | 0.00 | 93 | 1017.0 |
| 20260510105404 | 48 | 321 | 0.0 | 0.0 | 0.00 | 0.00 | 0.00 | 92 | 1016.8 |
| 20260510104904 | 48 | 321 | 0.0 | 0.0 | 0.00 | 0.00 | 0.00 | 92 | 1016.6 |
| 20260510104404 | 49 | 321 | 0.0 | 0.0 | 0.00 | 0.00 | 0.00 | 93 | 1016.6 |
| 20260510103904 | 49 | 293 | 0.0 | 0.0 | 0.00 | 0.00 | 0.00 | 93 | 1016.5 |
| 20260510103404 | 49 | 236 | 0.0 | 0.0 | 0.00 | 0.00 | 0.00 | 93 | 1016.5 |
| 20260510102904 | 49 | 236 | 0.0 | 0.0 | 0.00 | 0.00 | 0.00 | 93 | 1016.4 |
| 20260510102404 | 49 | 236 | 0.0 | 0.0 | 0.00 | 0.00 | 0.00 | 93 | 1016.2 |
| 20260510101904 | 49 | 236 | 0.0 | 0.0 | 0.00 | 0.00 | 0.00 | 93 | 1016.1 |
| 20260510101405 | 49 | 236 | 0.0 | 0.0 | 0.00 | 0.00 | 0.00 | 94 | 1016.0 |
| 20260510095904 | 49 | 138 | 0.0 | 0.0 | 0.00 | 0.00 | 0.00 | 93 | 1016.0 |
| 20260510095404 | 49 | 169 | 0.0 | 0.0 | 0.00 | 0.00 | 0.00 | 93 | 1016.0 |
| 20260510094903 | 49 | 169 | 0.0 | 0.0 | 0.00 | 0.00 | 0.00 | 94 | 1016.1 |
| 20260510094404 | 49 | 161 | 0.0 | 0.0 | 0.00 | 0.00 | 0.00 | 92 | 1016.1 |
| 20260510093904 | 49 | 161 | 0.0 | 0.0 | 0.00 | 0.00 | 0.00 | 92 | 1016.1 |
| 20260510093404 | 49 | 161 | 0.0 | 0.0 | 0.00 | 0.00 | 0.00 | 92 | 1016.1 |
| 20260510092904 | 49 | 161 | 0.0 | 0.0 | 0.00 | 0.00 | 0.00 | 92 | 1016.2 |
| 20260510092404 | 49 | 161 | 0.0 | 0.0 | 0.00 | 0.00 | 0.00 | 92 | 1016.1 |
| 20260510091404 | 49 | 162 | 0.0 | 0.0 | 0.00 | 0.00 | 0.00 | 92 | 1016.0 |
| 20260510090904 | 50 | 9 | 0.0 | 0.0 | 0.00 | 0.00 | 0.00 | 92 | 1016.0 |
| 20260510090404 | 50 | 9 | 0.0 | 0.0 | 0.00 | 0.00 | 0.00 | 92 | 1016.0 |
| 20260510085904 | 50 | 44 | 0.0 | 0.0 | 0.00 | 0.00 | 0.00 | 91 | 1015.9 |
| 20260510085405 | 50 | 44 | 0.0 | 0.0 | 0.00 | 0.00 | 0.00 | 91 | 1015.8 |
| 20260510084904 | 50 | 44 | 0.0 | 0.0 | 0.00 | 0.00 | 0.00 | 91 | 1015.7 |
| 20260510083905 | 50 | 44 | 0.0 | 0.0 | 0.00 | 0.00 | 0.00 | 90 | 1015.8 |
| 20260510083404 | 51 | 44 | 0.0 | 0.0 | 0.00 | 0.00 | 0.00 | 90 | 1015.7 |
| 20260510082904 | 51 | 44 | 0.0 | 0.0 | 0.00 | 0.00 | 0.00 | 91 | 1015.7 |
| 20260510082405 | 51 | 44 | 0.0 | 0.0 | 0.00 | 0.00 | 0.00 | 91 | 1015.7 |
| 20260510081904 | 51 | 44 | 0.0 | 0.0 | 0.00 | 0.00 | 0.00 | 91 | 1015.7 |
| 20260510081404 | 51 | 44 | 0.0 | 0.0 | 0.00 | 0.00 | 0.00 | 91 | 1015.7 |
| 20260510080904 | 51 | 43 | 0.0 | 0.0 | 0.00 | 0.00 | 0.00 | 90 | 1015.7 |
| 20260510080404 | 51 | 41 | 0.0 | 0.0 | 0.00 | 0.00 | 0.00 | 90 | 1015.7 |
| 20260510075904 | 51 | 42 | 0.0 | 0.0 | 0.00 | 0.00 | 0.00 | 90 | 1015.7 |
| 20260510075404 | 52 | 42 | 0.0 | 0.0 | 0.00 | 0.00 | 0.00 | 90 | 1015.7 |
| 20260510074904 | 52 | 37 | 0.0 | 0.0 | 0.00 | 0.00 | 0.00 | 90 | 1015.7 |
| 20260510073904 | 52 | 37 | 0.0 | 0.0 | 0.00 | 0.00 | 0.00 | 89 | 1015.6 |
| 20260510073404 | 52 | 37 | 0.0 | 0.0 | 0.00 | 0.00 | 0.00 | 89 | 1015.6 |
| 20260510072904 | 53 | 37 | 0.0 | 0.0 | 0.00 | 0.00 | 0.00 | 89 | 1015.5 |
| 20260510071404 | 53 | 37 | 0.0 | 0.0 | 0.00 | 0.00 | 0.00 | 89 | 1015.5 |
| 20260510070404 | 53 | 37 | 0.0 | 0.0 | 0.00 | 0.00 | 0.00 | 88 | 1015.4 |
| 20260510065904 | 53 | 37 | 0.0 | 0.0 | 0.00 | 0.00 | 0.00 | 88 | 1015.3 |
| 20260510065405 | 53 | 37 | 0.0 | 0.0 | 0.00 | 0.00 | 0.00 | 88 | 1015.3 |
| 20260510064904 | 54 | 37 | 0.0 | 0.0 | 0.00 | 0.00 | 0.00 | 87 | 1015.3 |
| 20260510064406 | 54 | 37 | 0.0 | 0.0 | 0.00 | 0.00 | 0.00 | 87 | 1015.3 |
| 20260510061904 | 54 | 14 | 0.0 | 0.0 | 0.00 | 0.00 | 0.00 | 87 | 1015.3 |
| 20260510061404 | 54 | 265 | 0.0 | 0.0 | 0.00 | 0.00 | 0.00 | 86 | 1015.3 |
| 20260510060904 | 55 | 265 | 0.0 | 0.0 | 0.00 | 0.00 | 0.00 | 86 | 1015.3 |
| 20260510060405 | 55 | 265 | 0.0 | 0.0 | 0.00 | 0.00 | 0.00 | 86 | 1015.2 |
| 20260510054404 | 56 | 265 | 0.0 | 0.0 | 0.00 | 0.00 | 0.00 | 84 | 1015.1 |
| 20260510053904 | 56 | 265 | 0.0 | 0.0 | 0.00 | 0.00 | 0.00 | 83 | 1015.1 |
| 20260510053404 | 56 | 265 | 0.0 | 0.0 | 0.00 | 0.00 | 0.00 | 82 | 1015.1 |
| 20260510052904 | 57 | 265 | 0.0 | 0.0 | 0.00 | 0.00 | 0.00 | 81 | 1015.1 |
| 20260510052405 | 57 | 265 | 0.0 | 0.0 | 0.00 | 0.00 | 0.00 | 81 | 1015.1 |
| 20260510051904 | 57 | 265 | 0.0 | 0.0 | 0.00 | 0.00 | 0.00 | 81 | 1015.2 |
| 20260510051404 | 57 | 265 | 0.0 | 0.0 | 0.00 | 0.00 | 0.00 | 80 | 1015.2 |
| 20260510050905 | 58 | 265 | 0.0 | 0.0 | 0.00 | 0.00 | 0.00 | 79 | 1015.3 |
| 20260510050404 | 58 | 265 | 0.0 | 0.0 | 0.00 | 0.00 | 0.00 | 78 | 1015.3 |
| 20260510045905 | 58 | 265 | 0.0 | 0.0 | 0.00 | 0.00 | 0.00 | 78 | 1015.2 |
| 20260510044904 | 59 | 265 | 0.0 | 0.0 | 0.00 | 0.00 | 0.00 | 78 | 1015.1 |
| 20260510044404 | 60 | 265 | 0.0 | 0.0 | 0.00 | 0.00 | 0.00 | 77 | 1015.1 |
| 20260510043904 | 60 | 265 | 0.0 | 0.0 | 0.00 | 0.00 | 0.00 | 76 | 1014.9 |
| 20260510042904 | 61 | 265 | 0.0 | 0.0 | 0.00 | 0.00 | 0.00 | 74 | 1014.7 |
| 20260510042404 | 61 | 265 | 0.0 | 0.0 | 0.00 | 0.00 | 0.00 | 74 | 1014.7 |
| 20260510041904 | 61 | 265 | 0.0 | 0.0 | 0.00 | 0.00 | 0.00 | 73 | 1014.6 |
| 20260510041404 | 62 | 265 | 0.0 | 0.0 | 0.00 | 0.00 | 0.00 | 73 | 1014.5 |
| 20260510040904 | 62 | 265 | 0.0 | 0.0 | 0.00 | 0.00 | 0.00 | 73 | 1014.4 |
| 20260510040403 | 63 | 265 | 0.0 | 0.0 | 0.00 | 0.00 | 0.00 | 71 | 1014.4 |
| 20260510035404 | 64 | 265 | 0.0 | 0.0 | 0.00 | 0.00 | 0.00 | 69 | 1014.2 |
| 20260510034904 | 64 | 265 | 0.0 | 0.0 | 0.00 | 0.00 | 0.00 | 69 | 1014.2 |
| 20260510034404 | 65 | 265 | 0.0 | 0.0 | 0.00 | 0.00 | 0.00 | 69 | 1014.3 |
| 20260510033904 | 65 | 265 | 0.0 | 0.0 | 0.00 | 0.00 | 0.00 | 67 | 1014.2 |
| 20260510033404 | 66 | 265 | 0.0 | 0.0 | 0.00 | 0.00 | 0.00 | 67 | 1014.2 |
| 20260510032904 | 66 | 265 | 0.0 | 0.0 | 0.00 | 0.00 | 0.00 | 67 | 1014.1 |
| 20260510032404 | 67 | 265 | 0.0 | 0.0 | 0.00 | 0.00 | 0.00 | 66 | 1014.1 |
| 20260510031904 | 67 | 265 | 0.0 | 0.0 | 0.00 | 0.00 | 0.00 | 65 | 1014.2 |
| 20260510031404 | 68 | 265 | 0.0 | 0.0 | 0.00 | 0.00 | 0.00 | 64 | 1014.1 |
| 20260510030404 | 69 | 265 | 0.0 | 0.0 | 0.00 | 0.00 | 0.00 | 60 | 1014.0 |
| 20260510025904 | 70 | 267 | 0.0 | 0.0 | 0.00 | 0.00 | 0.00 | 57 | 1014.0 |
| 20260510025404 | 70 | 267 | 0.0 | 0.0 | 0.00 | 0.00 | 0.00 | 58 | 1014.0 |
| 20260510024904 | 71 | 338 | 0.0 | 0.0 | 0.00 | 0.00 | 0.00 | 57 | 1014.0 |
| 20260510024404 | 71 | 272 | 0.0 | 0.0 | 0.00 | 0.00 | 0.00 | 56 | 1014.0 |
| 20260510023404 | 72 | 278 | 0.0 | 0.0 | 0.00 | 0.00 | 0.00 | 56 | 1014.0 |
| 20260510022905 | 72 | 273 | 0.0 | 0.0 | 0.00 | 0.00 | 0.00 | 57 | 1014.0 |
| 20260510022404 | 72 | 273 | 0.0 | 0.0 | 0.00 | 0.00 | 0.00 | 56 | 1014.1 |
| 20260510021904 | 73 | 273 | 0.0 | 0.0 | 0.00 | 0.00 | 0.00 | 56 | 1014.1 |
| 20260510021404 | 73 | 273 | 0.0 | 0.0 | 0.00 | 0.00 | 0.00 | 57 | 1014.0 |
| 20260510020904 | 73 | 272 | 0.0 | 0.0 | 0.00 | 0.00 | 0.00 | 57 | 1014.0 |
| 20260510020404 | 73 | 232 | 0.0 | 0.0 | 0.00 | 0.00 | 0.00 | 52 | 1014.0 |
| 20260510015904 | 73 | 165 | 0.0 | 0.0 | 0.00 | 0.00 | 0.00 | 55 | 1014.1 |
| 20260510015404 | 74 | 165 | 0.0 | 0.0 | 0.00 | 0.00 | 0.00 | 53 | 1014.1 |
| 20260510014904 | 74 | 211 | 0.0 | 0.0 | 0.00 | 0.00 | 0.00 | 52 | 1014.2 |
| 20260510014404 | 75 | 211 | 0.0 | 0.0 | 0.00 | 0.00 | 0.00 | 51 | 1014.2 |
| 20260510013904 | 75 | 211 | 0.0 | 0.0 | 0.00 | 0.00 | 0.00 | 50 | 1014.2 |
| 20260510013404 | 75 | 212 | 0.0 | 2.0 | 0.00 | 0.00 | 0.00 | 48 | 1014.3 |
| 20260510012904 | 75 | 135 | 0.0 | 2.0 | 0.00 | 0.00 | 0.00 | 47 | 1014.4 |
| 20260510011404 | 76 | 269 | 0.0 | 2.0 | 0.00 | 0.00 | 0.00 | 41 | 1014.4 |
| 20260510010905 | 77 | 253 | 0.0 | 2.0 | 0.00 | 0.00 | 0.00 | 41 | 1014.4 |
| 20260510010405 | 77 | 233 | 0.0 | 0.0 | 0.00 | 0.00 | 0.00 | 43 | 1014.4 |
| 20260510005904 | 77 | 263 | 0.0 | 1.0 | 0.00 | 0.00 | 0.00 | 42 | 1014.5 |
| 20260510005404 | 77 | 256 | 0.0 | 1.0 | 0.00 | 0.00 | 0.00 | 40 | 1014.5 |
| 20260510004904 | 77 | 211 | 0.0 | 2.0 | 0.00 | 0.00 | 0.00 | 39 | 1014.6 |
| 20260510004404 | 77 | 132 | 0.0 | 2.0 | 0.00 | 0.00 | 0.00 | 39 | 1014.6 |
| 20260510003904 | 76 | 319 | 0.0 | 0.0 | 0.00 | 0.00 | 0.00 | 39 | 1014.7 |
| 20260510002903 | 76 | 186 | 0.0 | 0.0 | 0.00 | 0.00 | 0.00 | 38 | 1014.8 |
| 20260510002404 | 76 | 248 | 0.0 | 0.0 | 0.00 | 0.00 | 0.00 | 42 | 1014.8 |
| 20260510001904 | 77 | 274 | 0.0 | 2.0 | 0.00 | 0.00 | 0.00 | 38 | 1014.8 |
| 20260510001404 | 77 | 276 | 0.0 | 3.0 | 0.00 | 0.00 | 0.00 | 36 | 1014.9 |
| 20260510000904 | 77 | 210 | 1.0 | 3.0 | 0.00 | 0.00 | 0.00 | 34 | 1015.0 |
| 20260510000404 | 77 | 237 | 0.0 | 7.0 | 0.00 | 0.00 | 0.00 | 33 | 1015.0 |
| 20260509235905 | 77 | 286 | 1.0 | 7.0 | 0.00 | 0.00 | 0.00 | 33 | 1015.0 |
| 20260509234904 | 79 | 129 | 0.0 | 2.0 | 0.00 | 0.00 | 0.00 | 35 | 1015.1 |
| 20260509234404 | 79 | 251 | 0.0 | 1.0 | 0.00 | 0.00 | 0.00 | 38 | 1015.0 |
| 20260509233904 | 78 | 187 | 0.0 | 3.0 | 0.00 | 0.00 | 0.00 | 42 | 1015.1 |
| 20260509233404 | 77 | 73 | 0.0 | 3.0 | 0.00 | 0.00 | 0.00 | 38 | 1015.2 |
| 20260509232904 | 77 | 220 | 0.0 | 2.0 | 0.00 | 0.00 | 0.00 | 39 | 1015.2 |
| 20260509232404 | 77 | 216 | 0.0 | 5.0 | 0.00 | 0.00 | 0.00 | 36 | 1015.1 |
| 20260509231904 | 77 | 311 | 1.0 | 5.0 | 0.00 | 0.00 | 0.00 | 42 | 1015.3 |
| 20260509230904 | 77 | 28 | 0.0 | 0.0 | 0.00 | 0.00 | 0.00 | 43 | 1015.4 |
| 20260509230404 | 77 | 74 | 0.0 | 3.0 | 0.00 | 0.00 | 0.00 | 40 | 1015.5 |
| 20260509225904 | 78 | 222 | 0.0 | 3.0 | 0.00 | 0.00 | 0.00 | 40 | 1015.7 |
| 20260509225404 | 78 | 247 | 0.0 | 2.0 | 0.00 | 0.00 | 0.00 | 42 | 1015.7 |
| 20260509224905 | 78 | 4 | 0.0 | 2.0 | 0.00 | 0.00 | 0.00 | 40 | 1015.8 |
| 20260509224404 | 78 | 56 | 0.0 | 8.0 | 0.00 | 0.00 | 0.00 | 45 | 1015.9 |
| 20260509223404 | 77 | 261 | 0.0 | 6.0 | 0.00 | 0.00 | 0.00 | 49 | 1016.0 |
| 20260509222904 | 77 | 79 | 1.0 | 6.0 | 0.00 | 0.00 | 0.00 | 43 | 1016.2 |
| 20260509222404 | 77 | 230 | 1.0 | 5.0 | 0.00 | 0.00 | 0.00 | 45 | 1016.2 |
| 20260509221904 | 77 | 261 | 0.0 | 8.0 | 0.00 | 0.00 | 0.00 | 47 | 1016.2 |
| 20260509221404 | 76 | 202 | 0.0 | 8.0 | 0.00 | 0.00 | 0.00 | 47 | 1016.3 |
| 20260509215904 | 76 | 298 | 1.0 | 9.0 | 0.00 | 0.00 | 0.00 | 56 | 1016.4 |
| 20260509215404 | 76 | 293 | 3.0 | 9.0 | 0.00 | 0.00 | 0.00 | 51 | 1016.6 |
| 20260509214904 | 76 | 227 | 1.0 | 6.0 | 0.00 | 0.00 | 0.00 | 52 | 1016.6 |
| 20260509214404 | 75 | 237 | 1.0 | 7.0 | 0.00 | 0.00 | 0.00 | 49 | 1016.7 |
| 20260509213904 | 75 | 238 | 0.0 | 7.0 | 0.00 | 0.00 | 0.00 | 55 | 1016.7 |
| 20260509213405 | 75 | 252 | 2.0 | 7.0 | 0.00 | 0.00 | 0.00 | 52 | 1016.8 |
| 20260509212904 | 75 | 209 | 1.0 | 7.0 | 0.00 | 0.00 | 0.00 | 51 | 1016.8 |
| 20260509212404 | 74 | 255 | 0.0 | 5.0 | 0.00 | 0.00 | 0.00 | 53 | 1016.7 |
| 20260509211905 | 74 | 259 | 0.0 | 6.0 | 0.00 | 0.00 | 0.00 | 54 | 1016.8 |
| 20260509210905 | 74 | 137 | 1.0 | 3.0 | 0.00 | 0.00 | 0.00 | 52 | 1016.9 |
| 20260509210405 | 74 | 310 | 0.0 | 3.0 | 0.00 | 0.00 | 0.00 | 55 | 1016.9 |
| 20260509205904 | 74 | 50 | 0.0 | 6.0 | 0.00 | 0.00 | 0.00 | 52 | 1017.0 |
| 20260509205404 | 73 | 162 | 1.0 | 9.0 | 0.00 | 0.00 | 0.00 | 56 | 1017.0 |
| 20260509204904 | 73 | 255 | 3.0 | 9.0 | 0.00 | 0.00 | 0.00 | 53 | 1017.1 |
| 20260509204404 | 74 | 243 | 0.0 | 5.0 | 0.00 | 0.00 | 0.00 | 54 | 1017.2 |
| 20260509203904 | 73 | 159 | 0.0 | 5.0 | 0.00 | 0.00 | 0.00 | 56 | 1017.3 |
| 20260509203404 | 73 | 63 | 1.0 | 5.0 | 0.00 | 0.00 | 0.00 | 57 | 1017.5 |
| 20260509202903 | 72 | 348 | 0.0 | 3.0 | 0.00 | 0.00 | 0.00 | 58 | 1017.5 |
| 20260509202405 | 72 | 217 | 0.0 | 5.0 | 0.00 | 0.00 | 0.00 | 54 | 1017.6 |
| 20260509201904 | 73 | 227 | 0.0 | 5.0 | 0.00 | 0.00 | 0.00 | 54 | 1017.6 |
| 20260509200904 | 73 | 230 | 0.0 | 2.0 | 0.00 | 0.00 | 0.00 | 55 | 1017.7 |
| 20260509200404 | 73 | 214 | 0.0 | 7.0 | 0.00 | 0.00 | 0.00 | 58 | 1017.8 |
| 20260509195904 | 73 | 36 | 0.0 | 7.0 | 0.00 | 0.00 | 0.00 | 55 | 1017.9 |
| 20260509195404 | 73 | 293 | 0.0 | 3.0 | 0.00 | 0.00 | 0.00 | 56 | 1017.8 |
| 20260509194904 | 72 | 256 | 0.0 | 5.0 | 0.00 | 0.00 | 0.00 | 58 | 1017.9 |
| 20260509194404 | 72 | 237 | 0.0 | 5.0 | 0.00 | 0.00 | 0.00 | 60 | 1018.0 |
| 20260509193904 | 72 | 28 | 0.0 | 2.0 | 0.00 | 0.00 | 0.00 | 58 | 1018.1 |
| 20260509193404 | 71 | 0 | 0.0 | 5.0 | 0.00 | 0.00 | 0.00 | 59 | 1018.1 |
| 20260509192904 | 71 | 47 | 1.0 | 5.0 | 0.00 | 0.00 | 0.00 | 59 | 1018.2 |
| 20260509192404 | 71 | 195 | 0.0 | 5.0 | 0.00 | 0.00 | 0.00 | 58 | 1018.2 |
| 20260509191904 | 71 | 184 | 0.0 | 5.0 | 0.00 | 0.00 | 0.00 | 57 | 1018.4 |
| 20260509191404 | 70 | 240 | 1.0 | 5.0 | 0.00 | 0.00 | 0.00 | 61 | 1018.5 |
| 20260509190905 | 70 | 186 | 0.0 | 3.0 | 0.00 | 0.00 | 0.00 | 59 | 1018.5 |
| 20260509190404 | 70 | 253 | 0.0 | 3.0 | 0.00 | 0.00 | 0.00 | 58 | 1018.5 |
| 20260509185905 | 69 | 36 | 1.0 | 3.0 | 0.00 | 0.00 | 0.00 | 60 | 1018.7 |
| 20260509184904 | 69 | 212 | 0.0 | 3.0 | 0.00 | 0.00 | 0.00 | 59 | 1018.8 |
| 20260509184404 | 69 | 38 | 0.0 | 2.0 | 0.00 | 0.00 | 0.00 | 62 | 1018.8 |
| 20260509183904 | 68 | 299 | 0.0 | 2.0 | 0.00 | 0.00 | 0.00 | 66 | 1018.9 |
| 20260509183403 | 68 | 25 | 0.0 | 2.0 | 0.00 | 0.00 | 0.00 | 64 | 1019.0 |
| 20260509182904 | 67 | 223 | 0.0 | 3.0 | 0.00 | 0.00 | 0.00 | 64 | 1019.0 |
| 20260509182404 | 67 | 218 | 0.0 | 3.0 | 0.00 | 0.00 | 0.00 | 67 | 1019.0 |
| 20260509181904 | 67 | 255 | 0.0 | 2.0 | 0.00 | 0.00 | 0.00 | 62 | 1019.1 |
| 20260509181405 | 67 | 246 | 0.0 | 2.0 | 0.00 | 0.00 | 0.00 | 65 | 1019.1 |
| 20260509180904 | 67 | 240 | 0.0 | 3.0 | 0.00 | 0.00 | 0.00 | 65 | 1019.1 |
| 20260509175904 | 65 | 54 | 0.0 | 3.0 | 0.00 | 0.00 | 0.00 | 66 | 1019.3 |
| 20260509175405 | 65 | 95 | 0.0 | 3.0 | 0.00 | 0.00 | 0.00 | 63 | 1019.3 |
| 20260509174904 | 65 | 358 | 0.0 | 3.0 | 0.00 | 0.00 | 0.00 | 69 | 1019.4 |
| 20260509173904 | 64 | 226 | 0.0 | 2.0 | 0.00 | 0.00 | 0.00 | 68 | 1019.6 |
| 20260509173404 | 64 | 57 | 0.0 | 2.0 | 0.00 | 0.00 | 0.00 | 68 | 1019.7 |
| 20260509172405 | 63 | 235 | 0.0 | 0.0 | 0.00 | 0.00 | 0.00 | 69 | 1019.8 |
| 20260509171904 | 63 | 259 | 0.0 | 2.0 | 0.00 | 0.00 | 0.00 | 72 | 1020.0 |
| 20260509171404 | 62 | 272 | 0.0 | 2.0 | 0.00 | 0.00 | 0.00 | 70 | 1019.9 |
| 20260509170904 | 62 | 165 | 0.0 | 2.0 | 0.00 | 0.00 | 0.00 | 70 | 1020.0 |
| 20260509170404 | 61 | 263 | 0.0 | 1.0 | 0.00 | 0.00 | 0.00 | 71 | 1020.0 |
| 20260509165904 | 61 | 197 | 0.0 | 2.0 | 0.00 | 0.00 | 0.00 | 70 | 1020.2 |
| 20260509165405 | 61 | 256 | 0.0 | 3.0 | 0.00 | 0.00 | 0.00 | 74 | 1020.2 |
| 20260509164904 | 61 | 176 | 0.0 | 3.0 | 0.00 | 0.00 | 0.00 | 73 | 1020.2 |
| 20260509164405 | 60 | 275 | 0.0 | 1.0 | 0.00 | 0.00 | 0.00 | 76 | 1020.3 |